Location: Jackson
(42.2460°N, 84.4010°W)
Time: 18:12:49
(UTC-05:00)

BlueWalker 3 - Pass Details

Date: 24 January 2026
Orbit: 450 x 461 km, 53.2° (Epoch: 14 February)

Event Time Altitude Azimuth Distance (km) Brightness Sun altitude
Rises 18:24:54 0° 240° (WSW) 2,448 7.4 -8.2°
Reaches altitude 10° 18:27:03 10° 243° (WSW) 1,578 6.1 -8.6°
Maximum altitude 18:30:34 63° 325° (NW) 508 2.0 -9.2°
Enters shadow 18:33:52 12° 47° (NE) 1,490 3.8 -9.8°
